Find Starlink 32905

NORAD ID: 62923 Int'l Des: 2025-027 Owner: SPXS Country: US Constellation: starlink operational
LEOCIRCULAR

实时位置

正在加载3D地球...

关于 Starlink 32905

正在加载描述...

即将过境

Passes for default location (London). Set your location on the main map for personalized predictions.

高度历史

Loading altitude history...

两行轨道根数

1 62923U 25027S 26125.40411326 .00035044 00000-0 12766-2 0 9995
2 62923 42.9948 168.7769 0001061 264.3742 95.6989 15.27589863 70210
Epoch: May 5, 2026 • Age: 17 hours

当前状态

高度 487.0 km
速度 7.62 km/s
星下点 -20.32°S, 124.92°W
发射日期 Feb 8, 2025
运行时间 1.2 years
类型 internet

技术详情

分类 Payload
质量 730.00 kg
干质量 700.00 kg
总质量 730.00 kg
长度 0.30 m
直径 4.10 m
跨度 29.00 m
形状 Box + pan
制造商 SPXS
平台类型 Starlink V2M
阶段状态 In Orbit
所有者/国家 SPXS/US

Most Searched